N8XHB Weather Reports


time (UTC)temp
F
wind
direction
speed
knots
gust
knots
rain 1hr
in
rain 24hr
in
rain mn
in
humidity
%
barometer
mb
20260503060215 42 165 1.7 2.6 0.00 0.00 0.00 47 1014.5
20260503054701 42 307 0.0 0.0 0.00 0.00 0.00 47 1015.0
20260503054159 42 39 0.9 0.9 0.00 0.00 0.00 47 1014.9
20260503053657 41 58 0.9 0.9 0.00 0.00 0.00 48 1014.8
20260503053155 41 31 0.0 0.0 0.00 0.00 0.00 48 1014.8
20260503052651 41 41 0.9 0.9 0.00 0.00 0.00 49 1014.9
20260503052148 41 24 0.0 0.0 0.00 0.00 0.00 49 1015.1
20260503051643 41 0 0.0 0.0 0.00 0.00 0.00 50 1015.0
20260503051141 41 16 0.0 0.0 0.00 0.00 0.00 50 1015.1
20260503050637 41 16 0.0 0.0 0.00 0.00 0.00 50 1015.0
20260503050134 41 29 0.0 0.0 0.00 0.00 0.00 49 1015.1
20260503045632 41 58 0.9 0.9 0.00 0.00 0.00 49 1015.3
20260503045129 41 42 0.0 0.0 0.00 0.00 0.00 49 1015.3
20260503044625 41 41 0.0 0.0 0.00 0.00 0.00 49 1015.3
20260503044123 40 43 0.0 0.0 0.00 0.00 0.00 50 1015.6
20260503043619 40 32 0.0 0.0 0.00 0.00 0.00 51 1015.7
20260503043116 40 32 0.0 0.0 0.00 0.00 0.00 51 1015.6
20260503042613 40 32 0.0 0.0 0.00 0.00 0.00 51 1015.7
20260503042109 40 32 0.0 0.0 0.00 0.00 0.00 51 1015.6
20260503041605 40 32 0.0 0.0 0.00 0.00 0.00 51 1015.6
20260503041104 41 32 0.0 0.0 0.00 0.00 0.00 51 1015.9
20260503040600 41 32 0.0 0.0 0.00 0.00 0.00 51 1015.7
20260503040058 40 32 0.0 0.0 0.00 0.00 0.00 50 1015.7
20260503035554 40 32 0.0 0.0 0.00 0.00 0.00 50 1015.8
20260503035052 41 33 0.0 0.0 0.00 0.00 0.00 51 1016.0
20260503034549 40 33 0.0 0.0 0.00 0.00 0.00 51 1015.9
20260503034046 40 28 0.0 0.0 0.00 0.00 0.00 51 1016.0
20260503033543 40 28 0.0 0.0 0.00 0.00 0.00 51 1016.1
20260503033041 41 28 0.0 0.0 0.00 0.00 0.00 50 1016.0
20260503032539 41 28 0.0 0.0 0.00 0.00 0.00 51 1016.2
20260503032037 41 21 0.0 0.0 0.00 0.00 0.00 50 1016.2
20260503031535 41 33 0.0 0.0 0.00 0.00 0.00 50 1016.2
20260503031032 41 33 0.0 0.0 0.00 0.00 0.00 50 1016.3
20260503030527 41 25 0.0 0.0 0.00 0.00 0.00 51 1016.4
20260503030025 41 25 0.0 0.0 0.00 0.00 0.00 51 1016.3
20260503025521 41 25 0.0 0.0 0.00 0.00 0.00 51 1016.3
20260503025019 41 25 0.0 0.0 0.00 0.00 0.00 52 1016.3
20260503024515 41 24 0.0 0.0 0.00 0.00 0.00 52 1016.4
20260503024013 41 24 0.0 0.0 0.00 0.00 0.00 52 1016.6
20260503023509 41 23 0.0 0.0 0.00 0.00 0.00 52 1016.4
20260503023007 41 23 0.0 0.0 0.00 0.00 0.00 52 1016.4
20260503022502 41 24 0.0 0.0 0.00 0.00 0.00 52 1016.4
20260503021957 41 28 0.0 0.0 0.00 0.00 0.00 51 1016.4
20260503021454 41 35 0.0 0.0 0.00 0.00 0.00 51 1016.4
20260503020951 42 34 0.0 0.0 0.00 0.00 0.00 51 1016.5
20260503020449 42 35 0.0 0.0 0.00 0.00 0.00 50 1016.4
20260503015945 42 31 0.0 0.0 0.00 0.00 0.00 50 1016.5
20260503015442 42 31 0.0 0.0 0.00 0.00 0.00 49 1016.2
20260503014938 42 35 0.0 0.0 0.00 0.00 0.00 48 1016.3
20260503014435 42 35 0.0 0.0 0.00 0.00 0.00 49 1016.3
20260503013933 42 32 0.0 0.0 0.00 0.00 0.00 48 1016.4
20260503013430 43 31 0.0 0.0 0.00 0.00 0.00 48 1016.4
20260503012927 43 30 0.0 0.0 0.00 0.00 0.00 47 1016.3
20260503012425 44 32 0.0 0.0 0.00 0.00 0.00 46 1016.2
20260503011921 44 31 0.0 0.0 0.00 0.00 0.00 45 1016.1
20260503011418 44 33 0.0 0.0 0.00 0.00 0.00 44 1016.2
20260503010915 44 37 0.0 0.9 0.00 0.00 0.00 44 1016.3
20260503010412 44 37 0.0 0.0 0.00 0.00 0.00 43 1016.3
20260503005909 45 36 0.0 0.0 0.00 0.00 0.00 43 1016.2
20260503005407 45 43 0.9 0.9 0.00 0.00 0.00 42 1016.1
20260503004902 45 32 0.9 0.9 0.00 0.00 0.00 42 1016.1
20260503004400 45 25 0.0 0.0 0.00 0.00 0.00 42 1016.1
20260503003857 45 25 0.9 0.9 0.00 0.00 0.00 41 1016.2
20260503003354 46 24 0.0 0.0 0.00 0.00 0.00 41 1016.1
20260503002851 46 19 0.9 2.6 0.00 0.00 0.00 41 1016.3
20260503002348 46 17 0.9 0.9 0.00 0.00 0.00 40 1016.0
20260503001844 46 11 0.0 0.0 0.00 0.00 0.00 41 1016.3
20260503001341 47 33 0.0 0.0 0.00 0.00 0.00 39 1016.0
20260503000838 47 25 0.0 0.0 0.00 0.00 0.00 39 1016.1
20260503000336 48 14 0.9 0.9 0.00 0.00 0.00 38 1016.1
20260502235833 48 15 1.7 2.6 0.00 0.00 0.00 36 1016.1
20260502235330 48 12 0.9 0.9 0.00 0.00 0.00 36 1016.3
20260502234826 48 17 0.0 0.9 0.00 0.00 0.00 36 1016.3
20260502234323 48 13 0.0 0.9 0.00 0.00 0.00 35 1016.2
20260502233820 48 9 3.5 5.2 0.00 0.00 0.00 33 1016.0
20260502233316 49 14 0.0 0.0 0.00 0.00 0.00 34 1016.2
20260502232813 49 10 1.7 1.7 0.00 0.00 0.00 32 1016.4
20260502232310 49 7 1.7 1.7 0.00 0.00 0.00 32 1016.2
20260502231806 49 11 1.7 1.7 0.00 0.00 0.00 32 1016.1
20260502231304 49 9 1.7 1.7 0.00 0.00 0.00 33 1016.3
20260502230802 49 27 0.9 1.7 0.00 0.00 0.00 32 1016.3
20260502230300 49 4 2.6 2.6 0.00 0.00 0.00 33 1016.4
20260502225756 49 23 0.0 0.0 0.00 0.00 0.00 32 1016.5
20260502225253 49 20 0.9 1.7 0.00 0.00 0.00 33 1016.5
20260502224749 49 22 0.9 0.9 0.00 0.00 0.00 33 1016.3
20260502224246 50 11 0.9 0.9 0.00 0.00 0.00 33 1016.5
20260502223744 50 17 1.7 1.7 0.00 0.00 0.00 33 1016.3
20260502223242 49 19 0.9 0.9 0.00 0.00 0.00 33 1016.4
20260502222739 49 26 0.9 0.9 0.00 0.00 0.00 34 1016.6
20260502222236 49 15 1.7 1.7 0.00 0.00 0.00 33 1016.7
20260502221731 49 14 1.7 2.6 0.00 0.00 0.00 33 1016.5
20260502221228 49 14 3.5 5.2 0.00 0.00 0.00 32 1016.6
20260502220725 49 12 2.6 3.5 0.00 0.00 0.00 33 1016.7
20260502220221 49 14 0.9 1.7 0.00 0.00 0.00 34 1016.7
20260502215718 49 12 4.3 6.1 0.00 0.00 0.00 33 1016.7
20260502215215 50 14 2.6 2.6 0.00 0.00 0.00 33 1016.6
20260502214713 50 19 0.9 0.9 0.00 0.00 0.00 35 1016.5
20260502214210 50 21 0.9 0.9 0.00 0.00 0.00 36 1016.7
20260502213707 50 15 0.9 1.7 0.00 0.00 0.00 35 1016.7
20260502213204 50 17 3.5 6.1 0.00 0.00 0.00 35 1016.7
20260502212702 50 29 0.9 0.9 0.00 0.00 0.00 36 1016.7
20260502212200 49 16 0.0 0.9 0.00 0.00 0.00 38 1016.6
20260502211656 50 12 3.5 6.1 0.00 0.00 0.00 35 1016.7
20260502211153 50 16 3.5 5.2 0.00 0.00 0.00 35 1016.8
20260502210650 50 17 1.7 1.7 0.00 0.00 0.00 36 1016.6
20260502210147 50 23 0.0 0.0 0.00 0.00 0.00 38 1016.7
20260502205644 50 19 1.7 1.7 0.00 0.00 0.00 38 1016.8
20260502205141 50 13 0.9 1.7 0.00 0.00 0.00 38 1016.9
20260502204638 49 18 1.7 2.6 0.00 0.00 0.00 38 1017.0
20260502204135 50 28 0.9 0.9 0.00 0.00 0.00 37 1017.0
20260502203632 50 16 0.0 0.9 0.00 0.00 0.00 40 1017.0
20260502203130 49 12 1.7 1.7 0.00 0.00 0.00 41 1017.1
20260502202625 50 161 3.5 3.5 0.00 0.00 0.00 38 1017.2
20260502202123 50 22 3.5 5.2 0.00 0.00 0.00 36 1017.1
20260502201620 49 161 1.7 3.5 0.00 0.00 0.00 39 1017.2
20260502201116 50 76 0.9 1.7 0.00 0.00 0.00 38 1017.2
20260502200612 50 46 0.9 0.9 0.00 0.00 0.00 39 1017.4
20260502200110 50 72 1.7 3.5 0.00 0.00 0.00 41 1017.3
20260502195608 50 11 4.3 6.1 0.00 0.00 0.00 38 1017.3
20260502195103 51 23 0.0 0.9 0.00 0.00 0.00 39 1017.6
20260502194600 50 84 0.0 0.9 0.00 0.00 0.00 41 1017.6
20260502194056 50 27 0.9 1.7 0.00 0.00 0.00 41 1017.6
20260502193554 49 22 0.9 0.9 0.00 0.00 0.00 40 1017.4
20260502193050 48 25 0.9 1.7 0.00 0.00 0.00 42 1017.6
20260502192546 48 3 1.7 2.6 0.00 0.00 0.00 41 1017.8
20260502192043 49 7 4.3 5.2 0.00 0.00 0.00 39 1017.8
20260502191540 51 12 1.7 2.6 0.00 0.00 0.00 41 1017.7
20260502191039 50 6 0.9 1.7 0.00 0.00 0.00 41 1017.8
20260502190536 50 27 1.7 1.7 0.00 0.00 0.00 41 1017.9
20260502190033 50 20 0.9 0.9 0.00 0.00 0.00 42 1017.9
20260502185527 50 67 1.7 1.7 0.00 0.00 0.00 41 1018.0
20260502185024 49 24 0.0 0.0 0.00 0.00 0.00 45 1018.1
20260502184520 47 20 1.7 2.6 0.00 0.00 0.00 44 1018.1
20260502184016 48 156 3.5 5.2 0.00 0.00 0.00 43 1018.2
20260502183513 48 9 0.9 0.9 0.00 0.00 0.00 44 1018.0
20260502183009 48 13 2.6 2.6 0.00 0.00 0.00 42 1017.9
20260502182503 48 56 0.9 0.9 0.00 0.00 0.00 42 1018.2
20260502182000 48 15 1.7 1.7 0.00 0.00 0.00 41 1018.2
20260502181458 48 21 0.0 0.0 0.00 0.00 0.00 44 1018.1
20260502180956 48 4 1.7 1.7 0.00 0.00 0.00 41 1018.3
20260502180453 47 53 0.9 0.9 0.00 0.00 0.00 42 1018.2
20260502170412 49 14 5.2 6.1 0.00 0.00 0.00 40 1018.8
20260502163855 46 23 0.9 0.9 0.00 0.00 0.00 47 1018.9
20260502163352 47 12 1.7 2.6 0.00 0.00 0.00 45 1019.1
20260502162850 48 25 0.9 1.7 0.00 0.00 0.00 44 1018.9
20260502162346 47 159 0.9 0.9 0.00 0.00 0.00 47 1019.1
20260502161843 46 28 1.7 3.5 0.00 0.00 0.00 46 1019.0
20260502161339 46 13 0.9 0.9 0.00 0.00 0.00 47 1019.0
20260502160837 45 25 0.9 0.9 0.00 0.00 0.00 49 1019.2
20260502160336 44 11 0.9 1.7 0.00 0.00 0.00 49 1019.2
20260502152310 46 11 0.0 0.0 0.00 0.00 0.00 45 1019.1
20260502151808 47 96 0.9 0.9 0.00 0.00 0.00 45 1019.1
20260502151305 46 17 1.7 1.7 0.00 0.00 0.00 44 1019.1
20260502150803 46 4 1.7 2.6 0.00 0.00 0.00 43 1019.1
20260502150259 45 31 3.5 3.5 0.00 0.00 0.00 46 1019.2
20260502130647 42 16 1.7 1.7 0.00 0.00 0.00 58 1019.5
20260502130145 42 17 1.7 1.7 0.00 0.00 0.00 57 1019.5
20260502123630 41 17 3.5 3.5 0.00 0.00 0.00 68 1019.4
20260502123127 41 16 1.7 1.7 0.00 0.00 0.00 69 1019.5
20260502122624 40 17 2.6 2.6 0.00 0.00 0.00 69 1019.6
20260502122120 39 12 3.5 5.2 0.00 0.00 0.00 70 1019.6
20260502121619 39 16 1.7 1.7 0.00 0.00 0.00 71 1019.5
20260502121116 39 16 0.9 0.9 0.00 0.00 0.00 70 1019.3
20260502120612 39 15 1.7 1.7 0.00 0.00 0.00 71 1019.3
20260502120109 39 13 0.9 0.9 0.00 0.00 0.00 70 1019.4
20260502115607 38 18 0.0 0.0 0.00 0.00 0.00 70 1019.5
20260502115102 39 17 1.7 1.7 0.00 0.00 0.00 69 1019.3
20260502114559 41 16 0.9 0.9 0.00 0.00 0.00 65 1019.1
20260502114056 39 11 0.0 0.0 0.00 0.00 0.00 69 1019.2
20260502113553 37 11 0.0 0.0 0.00 0.00 0.00 74 1019.1
20260502113052 35 11 0.0 0.0 0.00 0.00 0.00 79 1019.1
20260502112549 32 11 0.0 0.0 0.00 0.00 0.00 84 1019.2
20260502112047 31 11 0.0 0.0 0.00 0.00 0.00 87 1019.1
20260502111544 31 11 0.0 0.0 0.00 0.00 0.00 88 1019.1
20260502111041 30 11 0.0 0.0 0.00 0.00 0.00 88 1019.1
20260502110538 30 11 0.0 0.0 0.00 0.00 0.00 88 1018.9
20260502110036 30 11 0.0 0.0 0.00 0.00 0.00 87 1019.0
20260502105533 30 11 0.0 0.0 0.00 0.00 0.00 86 1018.9
20260502105031 30 11 0.0 0.0 0.00 0.00 0.00 86 1018.9
20260502104527 30 11 0.0 0.0 0.00 0.00 0.00 87 1019.1
20260502104025 30 11 0.0 0.0 0.00 0.00 0.00 87 1018.8
20260502103523 30 11 0.0 0.0 0.00 0.00 0.00 86 1018.8
20260502103021 30 11 0.0 0.0 0.00 0.00 0.00 86 1018.9
20260502102517 30 11 0.0 0.0 0.00 0.00 0.00 85 1019.0
20260502102014 30 11 0.0 0.0 0.00 0.00 0.00 85 1018.8
20260502101512 31 11 0.0 0.0 0.00 0.00 0.00 84 1018.8
20260502101010 31 11 0.0 0.0 0.00 0.00 0.00 84 1018.9
20260502100508 31 11 0.0 0.0 0.00 0.00 0.00 83 1018.9
20260502091442 34 11 0.0 0.0 0.00 0.00 0.00 75 1018.5
20260502090940 34 11 0.0 0.0 0.00 0.00 0.00 75 1018.4
20260502090437 34 11 0.0 0.0 0.00 0.00 0.00 74 1018.5
20260502071331 36 12 0.0 0.0 0.00 0.00 0.00 71 1018.1
20260502070829 35 12 0.9 0.9 0.00 0.00 0.00 72 1018.4
20260502070326 35 12 0.0 0.0 0.00 0.00 0.00 72 1018.4
20260502065825 35 12 0.0 0.0 0.00 0.00 0.00 72 1018.3
20260502065323 35 12 0.0 0.0 0.00 0.00 0.00 72 1018.3
20260502064821 36 12 0.0 0.0 0.00 0.00 0.00 71 1018.4
20260502064319 36 12 0.0 0.0 0.00 0.00 0.00 70 1018.4
20260502063816 35 12 0.0 0.0 0.00 0.00 0.00 71 1018.4
20260502063314 35 12 0.0 0.0 0.00 0.00 0.00 71 1018.4